Waukesha, WI

9:32 AM CDT on October 01, 2016 (GMT -0500)
Waukesha County

Weather History for KUES - July, 2013

Change the Weather History Date:

Friday, July 5, 2013

  Actual Average Record
Temperature  
Mean Temperature 71 °F -  
Max Temperature 80 °F 80 °F 100 °F (2012)
Min Temperature 62 °F 58 °F 45 °F (1972)
Cooling Degree Days 6    
Growing Degree Days 21 (Base 50)    
Moisture  
Dew Point 60 °F    
Average Humidity 74    
Maximum Humidity 94    
Minimum Humidity 47    
Precipitation  
Precipitation 0.00 in - - ()
Sea Level Pressure  
Sea Level Pressure 30.06 in    
Wind  
Wind Speed 6 mph (South)    
Max Wind Speed 15 mph    
Max Gust Speed 18 mph    
Visibility 10 miles    
Events      
Averages and records for this station are not official NWS values.
T = Trace of Precipitation, MM = Missing Value Source: NWS Daily Summary

Daily Weather History Graph

Daily Weather History Graph

Search for Another Location

Airport or City:

Trip Planner

Search our weather history database for the weather conditions in past years. The results will help you decide how hot, cold, wet, or windy it might be!

Date:

Astronomy

Jul. 05, 2013 Rise Set
Actual Time 5:20 AM CDT 8:34 PM CDT
Civil Twilight 4:45 AM CDT 9:09 PM CDT
Nautical Twilight 3:59 AM CDT 9:54 PM CDT
Astronomical Twilight 3:04 AM CDT 10:49 PM CDT
Moon 3:20 AM CDT (7/5) 6:28 PM CDT (7/5)
Length of Visible Light 16h 24m
Length of Day
15h 14m
Waning Crescent, 6% of the Moon is Illuminated
Jul 5
Waning Crescent
Jul 8
New
Jul 15
First Quarter
Jul 22
Full
Jul 29
Last Quarter

Hourly Weather History & Observations

Time (CDT) Temp. Heat Index Dew Point Humidity Pressure Visibility Wind Dir Wind Speed Gust Speed Precip Events Conditions
12:15 AM 66.2 °F - 60.8 °F 83% 30.07 in 10.0 mi South 5.8 mph - N/A   Clear
12:35 AM 66.2 °F - 60.8 °F 83% 30.08 in 10.0 mi South 4.6 mph - N/A   Clear
12:55 AM 66.2 °F - 60.8 °F 83% 30.07 in 10.0 mi South 3.5 mph - N/A   Clear
1:15 AM 64.4 °F - 60.8 °F 88% 30.07 in 10.0 mi South 4.6 mph - N/A   Clear
1:35 AM 64.4 °F - 60.8 °F 88% 30.07 in 10.0 mi South 5.8 mph - N/A   Clear
1:55 AM 64.4 °F - 60.8 °F 88% 30.07 in 10.0 mi South 4.6 mph - N/A   Clear
2:15 AM 64.4 °F - 60.8 °F 88% 30.06 in 10.0 mi South 4.6 mph - N/A   Clear
2:35 AM 64.4 °F - 60.8 °F 88% 30.06 in 10.0 mi South 5.8 mph - N/A   Clear
2:55 AM 62.6 °F - 60.8 °F 94% 30.06 in 10.0 mi South 4.6 mph - N/A   Clear
3:15 AM 62.6 °F - 59.0 °F 88% 30.06 in 10.0 mi South 4.6 mph - N/A   Clear
3:35 AM 62.6 °F - 59.0 °F 88% 30.06 in 10.0 mi South 3.5 mph - N/A   Clear
3:55 AM 62.6 °F - 59.0 °F 88% 30.06 in 10.0 mi South 3.5 mph - N/A   Clear
4:15 AM 62.6 °F - 59.0 °F 88% 30.06 in 10.0 mi SSW 5.8 mph - N/A   Clear
4:35 AM 62.6 °F - 59.0 °F 88% 30.06 in 10.0 mi SSW 4.6 mph - N/A   Clear
4:55 AM 62.6 °F - 59.0 °F 88% 30.06 in 10.0 mi SSW 4.6 mph - N/A   Clear
5:15 AM 62.6 °F - 59.0 °F 88% 30.07 in 10.0 mi SW 5.8 mph - N/A   Clear
5:35 AM 62.6 °F - 59.0 °F 88% 30.07 in 10.0 mi SW 4.6 mph - N/A   Clear
5:45 AM 62.6 °F - 59.0 °F 88% 30.07 in 10.0 mi Calm Calm - N/A   Clear
6:45 AM 64.4 °F - 59.0 °F 83% 30.09 in 10.0 mi South 4.6 mph - N/A   Clear
7:45 AM 68.0 °F - 60.8 °F 78% 30.10 in 10.0 mi WSW 6.9 mph - N/A   Clear
8:45 AM 71.6 °F - 62.6 °F 73% 30.11 in 10.0 mi SW 9.2 mph - N/A   Clear
9:45 AM 73.4 °F - 62.6 °F 69% 30.10 in 10.0 mi SW 6.9 mph - N/A   Clear
10:45 AM 77.0 °F - 62.6 °F 61% 30.10 in 10.0 mi WSW 6.9 mph - N/A   Clear
11:45 AM 78.8 °F - 62.6 °F 57% 30.09 in 10.0 mi WSW 5.8 mph - N/A   Scattered Clouds
12:45 PM 78.8 °F - 60.8 °F 54% 30.08 in 10.0 mi South 6.9 mph - N/A   Scattered Clouds
1:45 PM 78.8 °F - 62.6 °F 57% 30.07 in 10.0 mi South 9.2 mph - N/A   Scattered Clouds
2:45 PM 80.6 °F 81.8 °F 62.6 °F 54% 30.06 in 10.0 mi SSW 9.2 mph - N/A   Scattered Clouds
3:45 PM 80.6 °F 81.5 °F 60.8 °F 51% 30.04 in 10.0 mi SSW 10.4 mph 16.1 mph N/A   Scattered Clouds
4:45 PM 77.0 °F - 59.0 °F 54% 30.04 in 10.0 mi SSE 15.0 mph 18.4 mph N/A   Scattered Clouds
5:45 PM 78.8 °F - 57.2 °F 47% 30.04 in 10.0 mi SSE 10.4 mph 17.3 mph N/A   Scattered Clouds
6:45 PM 77.0 °F - 57.2 °F 50% 30.03 in 10.0 mi SSE 11.5 mph - N/A   Partly Cloudy
7:45 PM 75.2 °F - 57.2 °F 53% 30.03 in 10.0 mi South 4.6 mph - N/A   Clear
8:45 PM 73.4 °F - 55.4 °F 53% 30.04 in 10.0 mi South 5.8 mph - N/A   Clear
9:15 PM 69.8 °F - 55.4 °F 60% 30.04 in 10.0 mi SSE 8.1 mph - N/A   Clear
9:35 PM 69.8 °F - 55.4 °F 60% 30.05 in 10.0 mi SSE 5.8 mph - N/A   Clear
9:55 PM 69.8 °F - 59.0 °F 68% 30.06 in 10.0 mi SSE 6.9 mph - N/A   Clear
10:15 PM 68.0 °F - 59.0 °F 73% 30.06 in 10.0 mi South 4.6 mph - N/A   Clear
10:35 PM 68.0 °F - 59.0 °F 73% 30.06 in 10.0 mi South 5.8 mph - N/A   Clear
10:55 PM 68.0 °F - 59.0 °F 73% 30.06 in 10.0 mi South 4.6 mph - N/A   Clear
11:15 PM 68.0 °F - 59.0 °F 73% 30.06 in 10.0 mi South 4.6 mph - N/A   Clear
11:35 PM 66.2 °F - 59.0 °F 78% 30.06 in 10.0 mi South 5.8 mph - N/A   Clear
11:55 PM 66.2 °F - 60.8 °F 83% 30.06 in 10.0 mi South 5.8 mph - N/A   Clear